GFSNIL_sfc_temp_003.txt.gz
Temp
50 48 47 47 46 46 46 45 46 46 45 45 46 45 44 42 42 43 40 40 40 43
48 47 46 46 46 45 45 50 45 45 44 44 44 44 43 41 41 40 39 39 39 39
46 46 46 45 44 45 45 45 44 44 43 43 43 42 41 40 40 40 40 43 39 38
45 45 45 44 44 43 43 43 43 43 42 42 42 41 40 39 40 39 39 37 38 39
45 44 43 42 43 43 42 43 42 42 41 42 41 40 39 38 38 37 36 36 37 37
42 42 41 41 42 43 42 41 41 41 40 41 40 39 39 38 38 36 36 35 35 36
41 40 40 41 41 42 42 41 40 40 40 39 40 40 40 39 37 35 36 36 35 36
40 41 41 41 41 41 40 40 40 38 38 38 40 44 42 41 38 34 33 34 36 37
41 41 41 41 40 39 38 38 37 36 36 35 42 45 46 45 39 35 33 32 35 36
41 41 40 40 39 37 36 34 34 34 35 35 36 44 45 45 40 34 32 33 34 35
41 40 39 37 36 34 34 33 33 33 34 33 37 43 44 44 38 33 32 32 33 33
39 38 37 35 33 33 32 32 32 33 33 32 33 41 42 42 36 32 32 33 34 35
38 37 35 33 32 32 32 33 34 34 33 35 32 38 40 39 35 33 34 35 35 37
37 36 34 32 32 32 31 30 30 30 30 30 31 32 39 39 35 34 33 31 31 33

GFSNIL_sfc_temp_006.txt.gz
Temp
48 46 46 45 44 44 44 44 44 43 43 43 43 42 41 40 39 40 37 37 37 37
46 46 44 44 44 43 44 48 43 43 42 42 41 41 40 38 38 38 37 36 36 35
44 44 44 43 43 43 43 43 42 42 41 41 40 40 39 37 38 37 37 39 35 35
43 43 43 43 42 42 42 42 41 41 40 40 39 39 37 37 37 37 36 35 35 35
42 42 41 41 41 41 41 41 40 40 39 39 39 38 36 36 36 35 34 34 33 33
41 40 40 40 41 41 40 40 39 40 39 38 38 37 37 36 35 35 34 34 33 32
39 39 39 40 40 40 40 39 39 38 38 37 37 38 37 37 35 34 35 34 33 33
39 39 39 40 40 39 39 38 37 37 36 36 37 42 40 39 36 34 33 32 33 34
39 40 39 39 38 38 37 36 36 34 34 33 39 43 45 43 38 34 32 31 32 33
40 39 39 38 37 36 34 34 33 33 32 32 32 43 43 43 38 33 32 30 31 34
39 39 38 37 34 33 33 33 32 31 31 30 34 41 42 41 34 31 31 31 31 31
39 37 35 33 32 33 32 31 30 31 30 29 29 39 40 39 33 32 31 32 32 32
36 35 33 32 32 32 30 30 30 31 30 33 29 36 39 38 34 30 31 32 32 36
35 34 33 31 30 29 28 28 28 28 28 28 29 29 38 39 35 33 32 32 31 32

GFSNIL_sfc_temp_009.txt.gz
Temp
47 45 45 44 44 43 43 42 42 42 42 41 41 40 39 37 37 38 35 35 35 35
44 44 44 43 43 42 42 46 42 41 41 40 40 39 38 36 36 36 35 34 34 33
43 43 42 42 42 42 42 42 41 40 39 39 39 38 37 36 36 35 35 37 34 33
42 42 42 41 41 41 41 40 40 39 39 38 37 37 35 35 36 35 34 34 33 33
41 41 40 40 40 40 39 39 39 38 38 37 37 36 35 34 34 34 33 33 32 32
40 39 39 39 39 40 39 38 38 37 36 36 36 35 35 35 34 34 33 32 31 31
39 38 38 38 39 39 38 37 36 36 36 35 35 35 36 36 34 33 34 33 32 31
38 38 38 38 38 37 37 36 35 35 34 33 35 40 38 36 34 32 31 31 31 33
38 38 38 37 36 36 35 35 33 32 32 31 37 41 43 41 34 31 30 30 31 31
38 38 37 36 36 34 32 31 31 31 31 30 30 41 42 42 33 30 29 30 30 31
38 37 36 34 32 31 31 30 30 30 30 28 32 40 40 41 31 29 29 29 30 30
38 35 33 32 30 30 29 29 29 28 28 27 27 38 39 38 31 29 29 31 31 31
35 33 31 30 29 29 29 28 28 28 27 31 27 35 38 38 33 29 31 30 31 36
33 31 30 29 28 28 26 26 25 26 25 26 28 28 38 39 35 33 33 32 32 32

GFSNIL_sfc_temp_015.txt.gz
Temp
55 54 53 52 52 52 51 49 49 48 48 48 48 47 47 46 46 45 45 43 43 44
53 52 51 51 51 50 49 48 48 48 47 47 46 46 45 46 45 44 44 44 43 42
51 51 50 50 48 48 48 47 47 46 46 46 45 45 44 44 44 44 44 44 42 42
48 48 49 48 47 47 47 47 46 45 45 44 44 43 43 43 43 42 41 42 41 40
47 47 46 46 46 46 45 45 45 44 44 43 42 42 42 41 41 40 39 39 39 38
46 46 45 44 45 44 44 43 43 43 42 41 41 41 41 41 41 40 39 38 37 37
45 44 44 43 43 43 43 42 42 41 41 40 40 40 41 41 41 39 39 38 37 37
43 43 42 41 41 41 41 40 40 40 39 39 40 42 42 42 40 38 37 38 37 38
41 41 40 40 40 39 39 39 39 38 37 37 39 40 42 42 40 38 37 36 37 37
41 40 39 39 39 38 37 37 37 36 36 35 36 40 41 41 40 37 37 37 36 36
40 38 38 38 37 37 37 36 36 35 34 34 35 38 40 40 39 37 37 37 36 35
39 38 37 36 36 35 35 35 34 34 33 33 34 37 38 39 38 37 36 37 37 36
38 37 36 35 34 33 33 33 34 33 33 33 33 34 37 38 37 35 35 37 37 36
36 35 34 34 33 32 32 32 31 32 32 33 33 34 37 38 37 36 35 35 35 35

GFSNIL_sfc_temp_021.txt.gz
Temp
63 59 58 57 57 59 58 61 60 60 60 59 58 57 57 55 55 54 53 51 51 51
59 60 59 59 61 61 61 61 60 59 58 57 57 57 56 56 54 53 53 51 51 50
60 60 60 61 61 60 61 60 58 58 57 56 56 55 54 54 53 52 52 51 49 49
57 59 59 60 60 59 59 58 57 56 56 55 54 54 53 53 52 50 50 50 48 47
58 57 57 58 58 59 57 58 56 56 55 54 53 53 52 51 51 49 48 48 46 45
55 55 56 56 57 58 56 55 55 54 53 52 50 50 51 50 50 49 48 47 45 44
53 54 55 55 56 55 54 53 53 52 51 50 49 49 48 48 48 48 48 47 45 44
53 54 53 53 53 53 52 52 51 50 48 48 48 48 45 46 46 46 46 45 45 45
52 51 51 50 50 48 49 49 49 47 45 44 47 41 42 42 43 44 44 42 43 44
50 49 48 48 48 47 47 47 46 45 45 45 45 40 41 41 41 42 43 42 41 42
46 46 46 46 47 47 47 46 45 44 44 44 44 39 40 40 41 42 43 43 42 41
48 47 47 45 45 46 44 44 44 44 43 43 43 39 39 39 40 41 41 42 42 41
48 47 46 44 42 43 45 43 43 42 43 42 40 42 39 39 39 38 39 40 41 42
46 44 43 43 43 43 43 43 42 41 43 43 42 40 40 39 37 37 37 36 37 39

GFSNIL_sfc_temp_027.txt.gz
Temp
54 52 52 52 53 54 56 57 56 54 54 52 49 48 45 44 43 43 41 41 41 41
53 52 52 53 55 57 57 56 55 53 52 49 50 47 45 43 43 42 41 41 40 39
53 54 53 54 55 55 55 56 53 52 51 50 49 45 44 42 43 42 41 41 40 39
55 55 54 55 55 55 55 53 51 49 50 49 47 44 43 43 43 42 41 40 39 39
55 55 54 54 55 55 52 51 50 50 49 48 44 44 43 43 43 41 41 41 39 38
54 54 54 53 52 53 51 51 50 50 47 45 43 43 43 42 42 42 42 40 38 37
53 53 52 51 51 51 51 50 48 48 46 43 43 43 43 43 42 41 41 40 38 37
51 51 50 49 49 49 48 48 47 45 44 42 42 43 41 42 40 38 37 37 38 38
49 48 46 46 45 45 43 44 43 42 40 40 45 45 44 41 38 37 36 34 34 35
45 43 42 42 41 39 38 40 40 41 41 40 41 43 43 42 38 35 33 32 32 34
40 39 39 38 37 36 36 36 38 39 41 39 41 42 41 41 33 31 32 32 32 31
39 38 37 35 34 35 39 40 40 40 39 37 36 41 41 36 31 31 30 33 32 33
37 36 35 37 40 39 38 40 40 38 36 39 32 42 41 37 33 29 30 30 32 37
37 36 38 37 37 39 39 38 35 33 32 32 33 33 41 41 32 31 30 30 30 31

GFSNIL_sfc_temp_030.txt.gz
Temp
57 56 55 55 53 54 53 52 52 53 54 52 52 49 48 45 45 42 40 40 40 39
53 52 52 52 53 52 52 53 53 52 53 52 51 50 48 47 44 40 40 39 39 39
51 51 51 51 52 53 53 54 53 52 51 50 50 49 47 44 45 43 39 39 38 38
50 50 51 51 52 53 55 53 52 51 50 49 48 48 46 45 43 42 39 38 38 38
50 50 50 52 52 54 51 51 50 49 46 46 45 46 46 45 44 40 39 39 38 38
48 49 50 51 53 52 49 49 48 46 43 42 42 45 44 44 41 40 39 39 40 40
49 49 50 51 51 50 49 47 46 45 43 43 45 43 43 42 38 38 39 41 40 39
50 50 49 49 48 47 45 44 45 42 42 42 42 42 41 40 37 38 39 38 38 38
47 46 45 44 43 42 40 39 38 37 38 39 44 45 44 41 39 38 37 35 35 35
42 42 41 42 41 39 38 38 35 36 38 38 40 42 42 41 38 35 33 32 31 33
40 39 39 38 37 35 36 35 35 34 34 34 39 43 42 40 34 32 30 31 30 29
40 38 37 35 35 35 35 34 33 34 36 38 39 42 41 35 30 30 29 31 30 31
39 38 36 35 33 33 35 37 39 39 38 39 34 42 41 35 30 27 30 29 30 36
36 35 34 33 34 37 38 38 36 34 31 30 31 31 42 42 31 31 30 29 28 30

GFSNIL_sfc_temp_033.txt.gz
Temp
60 58 57 55 56 55 55 55 52 52 51 50 51 50 50 48 47 47 44 41 42 40
55 55 55 54 54 55 53 52 51 51 50 49 51 50 49 47 47 45 42 43 39 39
54 54 52 50 50 50 50 51 49 49 49 51 50 50 47 46 45 45 42 42 41 40
48 47 47 48 48 49 50 50 50 50 50 50 49 48 47 46 45 44 43 41 41 39
47 47 47 48 48 50 49 50 50 50 50 49 47 47 45 44 42 41 40 39 40 39
45 46 48 50 51 51 50 49 48 48 45 44 43 42 41 41 40 41 41 40 40 39
47 48 49 50 48 48 48 45 45 44 43 42 41 40 40 39 39 41 41 40 40 40
48 49 49 48 46 46 44 42 43 41 40 40 39 40 38 37 37 38 38 38 39 39
46 44 43 42 41 41 41 41 41 39 39 38 42 42 42 40 38 37 36 35 36 35
41 40 40 40 39 40 37 37 35 35 36 36 38 41 40 38 34 34 34 33 32 33
39 38 38 37 37 36 37 35 34 34 34 33 34 36 36 35 34 33 32 30 30 28
38 38 37 36 35 35 35 34 33 34 32 32 34 38 39 36 32 32 31 31 30 30
38 36 35 35 34 33 35 33 33 33 34 36 36 42 42 35 31 27 30 28 30 35
37 36 35 33 34 33 34 36 36 34 33 31 31 32 42 42 31 31 30 29 28 30

GFSNIL_sfc_temp_036.txt.gz
Temp
57 57 58 57 57 57 56 56 56 54 54 53 51 50 49 49 47 48 45 44 45 44
53 55 56 55 56 56 54 53 52 52 51 50 49 49 49 48 46 47 44 42 41 41
52 54 54 51 51 50 49 50 50 49 49 49 49 49 49 47 46 45 43 43 42 41
50 49 48 48 47 46 47 47 48 48 48 48 48 49 48 46 46 43 43 40 42 40
47 46 45 45 45 48 46 49 50 49 48 49 49 49 46 46 44 42 41 39 39 38
48 48 47 48 49 50 49 49 49 50 48 46 45 44 43 43 41 40 39 38 38 38
48 49 49 49 48 48 48 46 46 45 45 44 43 42 40 39 38 38 37 37 37 37
47 48 47 46 45 45 44 43 43 42 41 41 40 40 39 38 37 36 35 34 35 34
43 43 42 42 42 41 41 41 41 40 40 39 41 42 42 39 36 35 34 32 32 33
41 40 40 40 39 37 37 38 37 38 38 38 39 41 40 38 33 32 31 30 32 32
39 38 38 38 37 36 36 36 35 35 35 35 37 39 38 36 32 31 31 33 32 31
39 37 36 34 34 35 35 34 34 34 33 33 34 38 36 32 33 33 32 32 30 29
36 35 33 33 33 33 33 33 34 32 32 35 33 38 38 35 32 27 30 28 30 35
36 35 34 33 33 32 32 31 30 31 32 32 32 34 42 40 32 31 30 30 28 30

GFSNIL_sfc_temp_042.txt.gz
Temp
70 70 71 72 73 74 73 71 69 65 65 65 66 66 66 63 61 59 57 58 59 55
68 67 68 69 72 72 73 72 71 68 65 65 65 63 62 60 59 59 59 58 55 51
65 65 65 66 67 68 70 70 68 66 66 63 62 60 59 57 58 57 56 52 48 45
63 63 63 60 59 58 59 62 62 62 62 61 59 57 55 54 53 52 48 46 44 40
62 62 62 62 60 58 57 57 58 58 57 57 56 56 53 49 49 44 42 41 40 38
58 59 59 59 58 57 55 55 54 54 53 53 53 52 51 47 45 43 41 41 41 39
53 54 55 55 54 53 54 53 52 52 51 50 50 48 47 44 42 40 41 40 39 40
51 51 50 49 47 48 48 46 46 45 45 45 44 43 42 40 39 37 36 36 36 35
46 45 44 43 42 42 42 42 42 41 41 41 42 43 43 40 38 37 36 33 32 34
43 43 41 41 40 39 39 40 39 40 41 41 42 43 42 40 36 35 33 32 32 33
40 39 38 37 36 36 36 34 36 37 38 38 40 41 40 37 33 32 32 33 34 35
37 36 36 34 34 34 34 33 33 33 33 33 35 38 37 34 32 32 33 34 36 38
37 36 34 34 33 33 34 33 34 33 33 36 34 37 38 37 37 37 37 38 39 37
37 36 35 34 34 34 33 33 33 33 36 38 39 40 40 39 40 39 39 38 38 38

GFSNIL_sfc_temp_045.txt.gz
Temp
71 71 71 72 73 74 75 76 75 69 66 65 65 65 64 63 63 63 61 59 58 58
70 69 69 70 71 72 74 74 74 73 65 64 63 63 62 61 60 59 58 57 56 54
67 67 67 68 67 67 69 70 71 71 70 64 62 61 60 58 57 56 55 54 53 47
64 65 66 66 65 64 63 62 62 63 63 63 60 59 56 55 54 53 49 48 46 43
62 63 63 63 62 62 60 59 58 58 58 59 57 56 53 51 50 47 44 43 42 40
58 58 58 58 58 58 58 57 56 55 55 54 53 50 49 49 45 44 42 41 40 39
53 54 54 53 52 52 52 52 52 52 50 49 49 48 45 44 43 42 41 41 40 39
50 50 49 47 47 46 46 46 47 47 46 46 45 44 41 41 40 39 37 37 37 36
47 46 45 44 43 43 42 42 43 42 42 42 42 43 43 41 39 37 36 34 34 36
44 43 42 42 40 39 39 40 38 39 41 40 42 43 42 39 35 34 33 33 33 34
40 39 39 39 37 37 36 35 34 34 36 36 39 40 39 37 33 32 32 33 33 34
37 37 36 35 34 35 35 33 33 34 33 33 34 38 38 34 33 32 32 35 37 37
37 36 35 35 34 34 35 34 35 33 33 36 34 37 36 36 38 37 37 38 37 37
38 37 36 35 34 33 33 33 33 34 37 39 40 40 41 41 40 38 37 37 36 37

GFSNIL_sfc_temp_048.txt.gz
Temp
60 58 59 59 59 59 61 62 67 63 61 63 63 63 63 62 62 62 59 58 56 56
58 57 57 58 58 58 59 63 61 61 61 60 62 62 61 61 60 59 58 57 56 53
56 57 57 56 56 56 56 56 56 56 57 60 60 60 59 58 57 56 55 54 53 49
53 54 55 54 54 53 53 53 55 56 54 55 57 57 56 54 54 53 49 48 47 44
51 51 50 50 51 51 50 51 51 52 54 54 53 53 52 50 49 47 45 43 42 40
47 47 46 46 47 48 47 47 47 48 49 50 49 48 47 46 43 43 42 42 41 40
44 44 43 44 44 43 44 45 47 47 46 46 44 43 41 42 40 40 40 41 40 40
43 43 43 43 41 41 41 42 44 44 43 44 44 43 40 40 38 37 36 37 37 37
43 43 42 42 41 41 40 41 42 41 41 41 43 44 43 39 36 36 35 34 34 35
42 41 40 40 38 37 37 37 37 38 38 38 41 43 41 39 34 33 32 32 32 33
39 38 37 37 36 36 36 35 34 34 35 37 39 40 40 38 33 32 32 32 32 32
37 36 36 35 34 35 34 33 33 33 33 33 36 39 38 34 32 32 32 34 36 36
37 36 34 35 34 34 34 33 33 33 31 36 29 40 39 35 33 30 32 31 33 39
38 36 35 34 33 33 33 30 28 30 28 31 34 35 41 41 33 31 30 30 29 30